This is the latest recevied weather packets stored in our database for station/object GOLDWX. If no packets are shown the sender has not sent any weather packets the latest 10 day(s).
| Time | Temp. | Humidity | Pressure | Rain* | Wind** | Luminosity | Snow |
|---|---|---|---|---|---|---|---|
| 1777898366 | 7.22° C | 63% | 1010.2 hPa | 0 mm | - | - | - |
| 1777897766 | 7.22° C | 64% | 1010.1 hPa | 0 mm | - | - | - |
| 1777897464 | 7.22° C | 64% | 1010.2 hPa | 0 mm | - | - | - |
| 1777896862 | 7.22° C | 62% | 1010.1 hPa | 0 mm | - | - | - |
| 1777896561 | 7.22° C | 62% | 1010.1 hPa | 0 mm | - | - | - |
| 1777895960 | 7.78° C | 60% | 1010 hPa | 0 mm | - | - | - |
| 1777895660 | 7.78° C | 60% | 1010.2 hPa | 0 mm | - | - | - |
| 1777895057 | 7.78° C | 63% | 1010 hPa | 0 mm | - | - | - |
| 1777894757 | 7.78° C | 61% | 1010.2 hPa | 0 mm | - | - | - |
| 1777894154 | 7.78° C | 61% | 1010.2 hPa | 0 mm | - | - | - |
| 1777893854 | 7.78° C | 60% | 1010.1 hPa | 0 mm | - | - | - |
| 1777893252 | 7.78° C | 59% | 1010 hPa | 0 mm | - | - | - |
| 1777892951 | 8.33° C | 58% | 1010 hPa | 0 mm | - | - | - |
| 1777892349 | 8.89° C | 57% | 1010 hPa | 0 mm | - | - | - |
| 1777892049 | 8.89° C | 56% | 1010.1 hPa | 0 mm | - | - | - |
| 1777891447 | 8.89° C | 56% | 1010.1 hPa | 0 mm | - | - | - |
| 1777891146 | 8.89° C | 57% | 1010.1 hPa | 0 mm | - | - | - |
| 1777890544 | 8.33° C | 58% | 1010.3 hPa | 0 mm | - | - | - |
| 1777889642 | 8.33° C | 57% | 1010.2 hPa | 0 mm | - | - | - |
| 1777889341 | 8.89° C | 56% | 1010.3 hPa | 0 mm | - | - | - |
| 1777888739 | 8.89° C | 56% | 1010.2 hPa | 0 mm | - | - | - |
| 1777888439 | 8.89° C | 54% | 1010.3 hPa | 0 mm | - | - | - |
| 1777887837 | 9.44° C | 52% | 1010.3 hPa | 0 mm | - | - | - |
| 1777887536 | 10° C | 49% | 1010.3 hPa | 0 mm | - | - | - |
| 1777886934 | 10° C | 47% | 1010.4 hPa | 0 mm | - | - | - |
* Rain since midnight (hover to see other rain measurements)
** Current wind speed in m/s (hover to see current wind gust speed)